Find Connecta IOT-7

NORAD ID: 62715 Int'l Des: 2025-009 Owner: PLNSST Country: TR Constellation: plan-s operational
LEOCIRCULARRETROGRADESSO

当前视图

正在加载3D地球...

关于 Connecta IOT-7

正在加载描述...

即将过境

Passes for default location (London). Set your location on the main map for personalized predictions.

高度历史

Loading altitude history...

两行轨道根数

1 62715U 25009DL 26151.16017935 .00001692 00000-0 16344-3 0 9993
2 62715 97.7083 230.2347 0000645 153.5345 206.5908 14.94142545 74807
Epoch: May 31, 2026 • Age: 9 hours

当前状态

高度 588.2 km
速度 7.57 km/s
星下点 -3.67°S, 29.42°W
发射日期 Jan 14, 2025
运行时间 1.3 years
类型 other

技术详情

分类 Payload
质量 10.00 kg
干质量 10.00 kg
总质量 10.00 kg
长度 0.30 m
直径 0.20 m
跨度 0.30 m
形状 Box
制造商 PLNSST
平台类型 Cubesat 6U
阶段状态 In Orbit
所有者/国家 PLNSST/TR

Most Searched